EDT,Max TemperatureF,Mean TemperatureF,Min TemperatureF,Max Dew PointF,MeanDew PointF,Min DewpointF,Max Humidity, Mean Humidity, Min Humidity, Max Sea Level PressureIn, Mean Sea Level PressureIn, Min Sea Level PressureIn, Max VisibilityMiles, Mean VisibilityMiles, Min VisibilityMiles, Max Wind SpeedMPH, Mean Wind SpeedMPH, Max Gust SpeedMPH,PrecipitationIn, CloudCover, Events, WindDirDegrees
2012-9-1,87,79,71,72,70,68,94,74,52,30.18,30.12,30.04,10.0,3.8,0.5,13,5,18,0.00,2,Rain,217
2012-9-2,86,78,71,73,70,68,100,80,58,30.05,29.97,29.89,10.0,5.9,1.2,12,6,24,0.00,3,Rain,185
2012-9-3,78,74,69,72,71,70,100,92,74,29.95,29.92,29.88,10.0,8.8,1.8,12,7,16,0.00,8,Rain,189
2012-9-4,86,78,69,72,70,68,100,85,58,29.96,29.92,29.88,10.0,8.9,2.5,7,2,,0.00,4,,237
2012-9-5,87,78,68,73,70,66,100,87,52,29.95,29.90,29.85,10.0,9.7,2.5,13,3,24,0.00,3,Rain,250
2012-9-6,80,74,68,70,68,66,100,89,69,30.04,29.98,29.92,10.0,10.0,10.0,6,2,,0.00,5,,237
2012-9-7,87,74,62,70,68,63,100,78,52,30.01,29.93,29.78,10.0,9.9,7.0,9,4,,0.00,1,,224
2012-9-8,77,66,55,68,60,52,100,85,50,29.97,29.85,29.73,10.0,10.0,10.0,21,7,32,0.00,5,Rain,304
2012-9-9,75,62,50,59,53,50,100,74,44,30.08,30.00,29.95,10.0,10.0,10.0,9,4,,0.00,3,,284
2012-9-10,73,63,53,54,52,46,100,72,38,30.23,30.18,30.08,10.0,10.0,10.0,9,3,,0.00,0,,64
2012-9-11,78,62,46,59,50,45,100,70,32,30.31,30.25,30.22,10.0,9.9,7.0,7,1,,0.00,0,,140
2012-9-12,80,66,53,64,58,52,100,78,45,30.34,30.29,30.25,10.0,10.0,10.0,8,1,,0.00,2,,223
2012-9-13,80,70,60,64,61,57,100,77,45,30.35,30.29,30.25,10.0,10.0,10.0,9,1,,0.00,3,,220
2012-9-14,82,68,55,64,59,50,100,78,42,30.30,30.25,30.21,10.0,9.1,1.0,10,4,18,0.00,3,,296
2012-9-15,73,63,53,54,49,43,94,66,33,30.34,30.27,30.19,10.0,10.0,10.0,14,5,18,0.00,3,,63
2012-9-16,77,66,55,59,54,50,94,71,41,30.19,30.13,30.06,10.0,10.0,10.0,8,2,,0.00,2,,158
2012-9-17,69,64,59,66,62,57,100,93,78,30.08,29.98,29.81,10.0,10.0,10.0,8,2,,0.00,7,Rain,181
2012-9-18,66,58,51,64,59,43,100,89,68,30.04,29.80,29.68,10.0,9.9,7.0,14,4,22,0.00,6,Rain,310
2012-9-19,64,52,39,46,40,32,100,67,32,30.22,30.14,30.05,10.0,10.0,10.0,9,3,,0.00,0,,92
2012-9-20,75,58,41,54,47,41,100,70,38,30.12,30.06,30.00,10.0,10.0,10.0,12,4,20,0.00,1,,235
2012-9-21,77,67,57,61,56,52,88,68,54,30.06,29.98,29.85,10.0,10.0,10.0,15,6,23,0.00,4,,234
2012-9-22,73,58,44,57,48,36,77,56,31,30.18,29.98,29.86,10.0,10.0,10.0,21,13,31,0.00,3,,288
2012-9-23,62,48,33,43,38,34,100,74,37,30.27,30.23,30.18,10.0,10.0,10.0,7,1,,0.00,2,,356
2012-9-24,64,50,35,45,38,34,100,70,34,30.31,30.23,30.12,10.0,10.0,10.0,8,2,,0.00,0,,237
2012-9-25,64,53,42,59,50,41,100,82,59,30.18,30.10,30.03,10.0,10.0,10.0,17,6,26,0.00,4,Rain,228
2012-9-26,78,69,60,64,60,55,94,74,57,30.16,30.12,30.07,10.0,10.0,10.0,14,7,24,0.00,4,Rain,244
2012-9-27,73,66,60,66,63,59,100,88,73,30.19,30.16,30.13,10.0,9.7,3.0,13,3,20,0.00,7,Rain,248
2012-9-28,64,63,60,64,63,61,100,98,94,30.15,30.10,30.06,10.0,7.4,2.0,7,2,,0.00,8,Rain,155
2012-9-29,69,60,50,61,56,50,100,84,49,30.08,30.04,29.99,10.0,9.0,1.8,9,5,,0.00,4,,76
2012-9-30,71,60,48,57,53,48,100,80,50,30.00,29.91,29.86,10.0,8.5,3.0,9,4,,0.00,1,,253